COSMOS 2251 DEB, 36441

Orbit data source: Space-Track

COSMOS 2251 DEB, 36441 is space debris in LEO originally from a launch on Wed, 16 Jun 1993 UTC launched from the Plesetsk Missile And Space Complex (PKMTR). The debris from Iridium 33, an American commercial communications satellite, has been tracked extensively since its accidental collision with the defunct Russian satellite Cosmos 2251 in 2009. This event, occurring at high speed in low Earth orbit (LEO), generated thousands of pieces of space debris, significantly increasing the risk of further collisions. The Iridium 33 debris cloud has impacted space traffic management and orbital debris mitigation strategies, making it a subject of ongoing study in space situational awareness.

Loading next visibility...
Identifier
36441, 1993-036BAQ
Orbit
LEO
Country
Flag of CISCIS
Related business
Manufacturer
Unknown
Mission
Spacecraft
Bus & Motor
Unknown
Mass
Unknown
Launch date (UTC)
1993-06-16 (33 years ago)
Launch vehicle
Unknown
Launch site
Plesetsk Missile And Space Complex (PKMTR)
Object type
Payload
Rocket body
Debris
Shape & HBR
Unknown shape, 0.1 m
Radar Cross Section
Small (<0.1 m²)

Expand to show TLE details & history
Last TLE update: 1 week ago

TLE from 1 week ago
0 COSMOS 2251 DEB
1 36441U 93036BAQ 26200.86303397  .00002387  00000-0  13074-3 0  9996
2 36441  73.8313 252.5826 0104097 305.6190  53.5337 15.10393168902701
Epoch: 2026-07-19T20:42Z
TLE epoch observation values (Epoch: 2026-07-19T20:42:46.135Z)
Latitude
-0.00003°
Longitude
4.23503°
Altitude
495.399 km
Speed
7.64 km/s
True Right ascension
16h 50m 19s
True Declination
0° 00' 00"
Sunlit
Object was in full shadow at epoch
Visualization orbit readout
Latitude
Unknown
Longitude
Unknown
Altitude
Unknown
Speed
Unknown
Apparent Right ascension
Unknown
Apparent Declination
Unknown
Sunlit
N/A
Visualization observer readout
Local Sidereal Time
18:31:30
Azimuth
Unknown
Elevation
Unknown
Doppler factor
Unknown
Orbital elements
Apogee altitude
604.498 km
Perigee altitude
460.622 km
Semi-major axis
6,910.697 km
Eccentricity
0.01041
Inclination
73.8313°
RAAN
252.5826°
Arg. of periapsis
305.619°
True anomaly
54.50044°
Mean anomaly
53.5337°
Eccentric anomaly
54.01632°
Mean motion
3.77799 °/min
Orbital period
95.29 mins
BSTAR
0.00013074
Loading maneuver chart data...
Computing Atmospheric mass density...

Documentation

Showing up to 5 results
|